TimeCDT,TemperatureF,Dew PointF,Humidity,Sea Level PressureIn,VisibilityMPH,Wind Direction,Wind SpeedMPH,Gust SpeedMPH,PrecipitationIn,Events,Conditions,WindDirDegrees,DateUTC
12:15 AM,69.8,60.8,73,29.95,10.0,SSE,4.6,-,N/A,,Clear,150,2013-09-10 05:15:00
12:35 AM,69.8,60.8,73,29.96,10.0,SSE,5.8,-,N/A,,Clear,160,2013-09-10 05:35:00
12:55 AM,68.0,60.8,78,29.96,10.0,SSE,4.6,-,N/A,,Clear,160,2013-09-10 05:55:00
1:15 AM,68.0,60.8,78,29.96,10.0,South,3.5,-,N/A,,Clear,170,2013-09-10 06:15:00
1:35 AM,68.0,60.8,78,29.96,10.0,SSE,4.6,-,N/A,,Clear,160,2013-09-10 06:35:00
1:55 AM,68.0,60.8,78,29.96,10.0,SSE,3.5,-,N/A,,Clear,160,2013-09-10 06:55:00
2:15 AM,68.0,60.8,78,29.97,10.0,SSE,3.5,-,N/A,,Clear,150,2013-09-10 07:15:00
2:35 AM,68.0,60.8,78,29.97,10.0,Calm,Calm,-,N/A,,Clear,0,2013-09-10 07:35:00
2:55 AM,68.0,60.8,78,29.97,10.0,SSE,4.6,-,N/A,,Clear,160,2013-09-10 07:55:00
3:15 AM,64.4,60.8,88,29.97,10.0,SSE,4.6,-,N/A,,Clear,150,2013-09-10 08:15:00
3:35 AM,64.4,59.0,83,29.97,10.0,South,3.5,-,N/A,,Clear,190,2013-09-10 08:35:00
3:55 AM,64.4,60.8,88,29.98,10.0,South,3.5,-,N/A,,Clear,170,2013-09-10 08:55:00
4:15 AM,64.4,60.8,88,29.98,10.0,South,3.5,-,N/A,,Clear,170,2013-09-10 09:15:00
4:35 AM,64.4,60.8,88,29.98,10.0,South,3.5,-,N/A,,Clear,170,2013-09-10 09:35:00
4:55 AM,64.4,60.8,88,29.99,10.0,South,3.5,-,N/A,,Clear,180,2013-09-10 09:55:00
5:15 AM,64.4,60.8,88,29.99,10.0,South,3.5,-,N/A,,Clear,190,2013-09-10 10:15:00
5:35 AM,64.4,60.8,88,30.00,10.0,South,3.5,-,N/A,,Clear,180,2013-09-10 10:35:00
5:55 AM,64.4,60.8,88,30.00,10.0,Calm,Calm,-,N/A,,Clear,0,2013-09-10 10:55:00
6:15 AM,66.2,62.6,88,30.00,10.0,SSE,5.8,-,N/A,,Clear,150,2013-09-10 11:15:00
6:50 AM,66.2,62.6,88,30.02,10.0,SE,6.9,-,N/A,,Partly Cloudy,140,2013-09-10 11:50:00
7:50 AM,69.8,64.4,83,30.04,10.0,SE,11.5,-,N/A,,Scattered Clouds,130,2013-09-10 12:50:00
8:55 AM,77.0,66.2,69,30.06,10.0,South,13.8,-,N/A,,Partly Cloudy,170,2013-09-10 13:55:00
9:55 AM,84.2,64.4,51,30.07,10.0,South,19.6,-,N/A,,Partly Cloudy,170,2013-09-10 14:55:00
10:50 AM,89.6,60.8,38,30.08,10.0,South,13.8,20.7,N/A,,Scattered Clouds,190,2013-09-10 15:50:00
11:50 AM,91.4,60.8,36,30.08,10.0,South,15.0,19.6,N/A,,Scattered Clouds,170,2013-09-10 16:50:00
12:50 PM,93.2,60.8,34,30.07,10.0,South,17.3,23.0,N/A,,Scattered Clouds,180,2013-09-10 17:50:00
1:50 PM,95.0,60.8,32,30.06,10.0,SSE,19.6,26.5,N/A,,Scattered Clouds,160,2013-09-10 18:50:00
2:55 PM,95.0,59.0,30,30.04,10.0,South,17.3,23.0,N/A,,Scattered Clouds,180,2013-09-10 19:55:00
3:50 PM,95.0,59.0,30,30.02,10.0,SE,16.1,23.0,N/A,,Scattered Clouds,140,2013-09-10 20:50:00
4:50 PM,95.0,59.0,30,30.00,10.0,SSE,16.1,26.5,N/A,,Scattered Clouds,160,2013-09-10 21:50:00
5:50 PM,93.2,59.0,32,30.00,10.0,SSE,16.1,20.7,N/A,,Partly Cloudy,150,2013-09-10 22:50:00
6:55 PM,89.6,59.0,36,30.01,10.0,SSE,16.1,23.0,N/A,,Partly Cloudy,150,2013-09-10 23:55:00
7:50 PM,84.2,60.8,45,30.01,10.0,SE,13.8,-,N/A,,Partly Cloudy,140,2013-09-11 00:50:00
8:50 PM,77.0,60.8,57,30.03,10.0,SE,11.5,-,N/A,,Partly Cloudy,140,2013-09-11 01:50:00
9:15 PM,77.0,60.8,57,30.04,10.0,SSE,6.9,-,N/A,,Clear,150,2013-09-11 02:15:00
9:35 PM,73.4,60.8,65,30.05,10.0,SE,3.5,-,N/A,,Clear,140,2013-09-11 02:35:00
9:55 PM,73.4,59.0,61,30.06,10.0,Calm,Calm,-,N/A,,Clear,0,2013-09-11 02:55:00
10:15 PM,73.4,59.0,61,30.06,10.0,SE,4.6,-,N/A,,Clear,130,2013-09-11 03:15:00
10:35 PM,71.6,60.8,69,30.06,10.0,ESE,6.9,-,N/A,,Clear,120,2013-09-11 03:35:00
10:55 PM,73.4,60.8,65,30.07,10.0,SE,5.8,-,N/A,,Clear,140,2013-09-11 03:55:00
11:15 PM,73.4,60.8,65,30.07,10.0,SE,5.8,-,N/A,,Clear,130,2013-09-11 04:15:00
11:35 PM,71.6,60.8,69,30.08,10.0,SSE,4.6,-,N/A,,Clear,150,2013-09-11 04:35:00
11:55 PM,71.6,60.8,69,30.07,10.0,SSE,5.8,-,N/A,,Clear,150,2013-09-11 04:55:00